Regional Weather Roundup
Issued by NWS Kansas City/Pleasant Hill, MO

Home | Current Version | Previous Version | Graphics & Text | Print | Product List | Glossary Off
Versions: 1 2 3 4 5 6 7 8 9 10 11 12 13 14 15 16 17 18 19 20 21 22 23 24 25 26 27

000
ASUS43 KEAX 252210
RWREAX

WEATHER ROUNDUP FOR EASTERN KANSAS AND NORTHWEST MISSOURI
NATIONAL WEATHER SERVICE KANSAS CITY/PLEASANT HILL MO
400 PM CST SAT FEB 25 2017

KSZ040-057-103>105-MOZ028-029-037-043-252300-
...KANSAS CITY METROPOLITAN AREA...

CITY           SKY/WX    TMP DP  RH WIND       PRES   REMARKS
K.C. INTL      MOSUNNY   40  10  29 SW12      30.09F WCI  33
K.C. DOWNTOWN  SUNNY     44   9  23 W6        30.10S
LEES SUMMIT    SUNNY     42  10  27 MISG      30.10F
OLATHE - IXD   SUNNY     42   9  25 VRB5      30.10F
OLATHE - OJC   SUNNY     40  10  29 VRB5      30.09F
LAWRENCE       SUNNY     43   9  24 SW7       30.09F

$$

MOZ001>008-011>017-020>025-030>033-038>040-044>046-053-054-252300-
...NORTHERN AND CENTRAL MISSOURI...

CITY           SKY/WX    TMP DP  RH WIND       PRES   REMARKS
ST. JOSEPH     SUNNY     39  15  37 W7        30.09F WCI  34
MOSBY          CLEAR     41   9  26 W3        30.10F
WARRENSBURG    SUNNY     43   9  24 CALM      30.10F
WHITEMAN AFB   MOSUNNY   41   7  23 NW5       30.10S
CLINTON        SUNNY     43   9  24 NW5       30.13S
SEDALIA        SUNNY     44   8  23 N9        30.12S
WARSAW         NOT AVBL
CHILLICOTHE      N/A     39  12  33 VRB5      30.11F
KIRKSVILLE     CLOUDY    37  11  34 NW7       30.08F WCI  32

$$

MOZ041-047>049-056>058-063>065-088>090-097-252300-
...EASTERN AND SOUTHERN MISSOURI...

CITY           SKY/WX    TMP DP  RH WIND       PRES   REMARKS
ST. LOUIS INTL MOSUNNY   41  12  30 W16G28    30.09S WCI  33
SPIRIT OF STL  MOSUNNY   41  12  30 NW13G22   30.10R WCI  34
COLUMBIA       SUNNY     41  10  28 W13G18    30.10S WCI  34
JEFFERSON CITY SUNNY     41   9  26 W9        30.12S
ROLLA          SUNNY     40  10  29 NW10      30.09S WCI  33
OSAGE BEACH    SUNNY     42   8  24 W10       30.12F
SPRINGFIELD    SUNNY     44  13  28 NW5       30.10F
BRANSON        SUNNY     43  12  28 N10       30.12F
JOPLIN         SUNNY     43  13  29 VRB5      30.13F
WEST PLAINS    SUNNY     45  11  25 NW8       30.10S

$$

IAZ060-094-KSZ022-034>040-054-083-096-NEZ052-066-093-252300-
...KANSAS...SOUTHEAST NEBRASKA AND IOWA...

CITY           SKY/WX    TMP DP  RH WIND       PRES   REMARKS
TOPEKA         SUNNY     44  10  25 S8        30.08F
MANHATTAN      SUNNY     45  12  26 SW10      30.04F
EMPORIA        SUNNY     45   8  22 S12       30.07F
CHANUTE        SUNNY     46   7  20 SW6       30.11F
WICHITA        MOSUNNY   44  15  31 S14       30.07F
OMAHA          MOSUNNY   33  13  43 S14       30.03F WCI  23
LINCOLN        SUNNY     35  21  56 S13       30.02F WCI  26
FALLS CITY     SUNNY     40  16  37 SW12G18   30.05F WCI  33
LAMONI         SUNNY     35  16  45 W6        30.06F WCI  30
DES MOINES     CLOUDY    32  17  54 W9        30.05F WCI  24

$$





USA.gov is the U.S. government's official web portal to all federal, state and local government web resources and services.